User: anonymous   Login
Location: Unspecified
(0.0000°N, 0.0000°E)
Time: 07:14:20
(UTC+00:00)
Language:

GOES 4 - Orbit

View from above orbital plane
View from above orbital plane
View from above satellite
View from above satellite

Ground track
Ground track

The orbit data is extracted from the following two-line orbital elements,

1 11964U 80074A   17178.75465939 -.00000285 +00000-0 +00000-0 0  9998
2 11964 014.1842 334.7705 0031959 013.2183 163.8818 00.99232449094928
Epoch (UTC): 27 June 2017 18:06:42
Eccentricity: 0.0031959
inclination: 14.1842°
perigee height: 35944 km
apogee height: 36216 km
right ascension of ascending node: 334.7705°
argument of perigee: 13.2183°
revolutions per day: 0.99232449
mean anomaly at epoch: 163.8818°
orbit number at epoch: 9492

The dashed part of the orbit path shows where the satellite is in the earth's shadow,  

DLR